Aurora, OR

3:28 AM PST on January 23, 2017 (GMT -0800)
Aurora State

Weather History for KUAO - August, 2014

Change the Weather History Date:

Friday, August 15, 2014

  Actual Average Record
Temperature  
Mean Temperature 71 °F -  
Max Temperature 80 °F - 104 °F (2008)
Min Temperature 62 °F - 53 °F (2006)
Degree Days  
Heating Degree Days 0    
Month to date heating degree days 0  
Since 1 June heating degree days 92  
Since 1 July heating degree days 5  
Cooling Degree Days 6    
Month to date cooling degree days 113  
Year to date cooling degree days 347  
Since 1 June cooling degree days 320  
Growing Degree Days 21 (Base 50)    
Moisture  
Dew Point 59 °F    
Average Humidity 69    
Maximum Humidity 90    
Minimum Humidity 48    
Precipitation  
Precipitation 0.00 in - 0.61 in (1961)
Month to date precipitation 0.09  
Year to date precipitation 23.85  
Sea Level Pressure  
Sea Level Pressure 30.03 in    
Wind  
Wind Speed 4 mph (SW)    
Max Wind Speed 9 mph    
Max Gust Speed 21 mph    
Visibility 10 miles    
Events      
T = Trace of Precipitation, MM = Missing Value Source: NWS Daily Summary

Daily Weather History Graph

Daily Weather History Graph

Search for Another Location

Airport or City:

Trip Planner

Search our weather history database for the weather conditions in past years. The results will help you decide how hot, cold, wet, or windy it might be!

Date:

Astronomy

Aug. 15, 2014 Rise Set
Actual Time 6:12 AM PDT 8:17 PM PDT
Civil Twilight 5:40 AM PDT 8:49 PM PDT
Nautical Twilight 5:00 AM PDT 9:29 PM PDT
Astronomical Twilight 4:16 AM PDT 10:12 PM PDT
Moon 11:04 PM PDT (8/15) 12:19 PM PDT (8/15)
Length of Visible Light 15h 09m
Length of Day
14h 05m
Waning Gibbous, 68% of the Moon is Illuminated
Aug 15
Waning Gibbous
Aug 17
Last Quarter
Aug 25
New
Sep 2
First Quarter
Sep 8
Full

Hourly Weather History & Observations

Time (PDT) Temp. Heat Index Dew Point Humidity Pressure Visibility Wind Dir Wind Speed Gust Speed Precip Events Conditions
12:53 AM 66.0 °F - 60.1 °F 81% 29.98 in 10.0 mi South 3.5 mph - N/A   Overcast
1:53 AM 66.0 °F - 60.1 °F 81% 29.98 in 10.0 mi Calm Calm - N/A   Mostly Cloudy
2:53 AM 64.9 °F - 60.1 °F 84% 29.99 in 10.0 mi SSE 4.6 mph - N/A   Mostly Cloudy
3:53 AM 63.0 °F - 59.0 °F 87% 29.99 in 10.0 mi Calm Calm - N/A   Partly Cloudy
4:53 AM 62.1 °F - 59.0 °F 90% 30.00 in 10.0 mi Calm Calm - N/A   Clear
5:14 AM 62.1 °F - 59.0 °F 90% 30.00 in 10.0 mi South 3.5 mph - N/A   Mostly Cloudy
5:53 AM 64.0 °F - 59.0 °F 84% 30.00 in 10.0 mi SSW 3.5 mph - N/A   Overcast
6:53 AM 64.0 °F - 60.1 °F 87% 30.01 in 10.0 mi Calm Calm - N/A   Overcast
7:53 AM 64.9 °F - 60.1 °F 84% 30.03 in 10.0 mi South 3.5 mph - N/A   Overcast
8:03 AM 64.9 °F - 60.1 °F 84% 30.04 in 10.0 mi SSW 3.5 mph - N/A   Overcast
8:13 AM 64.9 °F - 60.1 °F 84% 30.04 in 10.0 mi SSW 4.6 mph - N/A   Overcast
8:53 AM 66.0 °F - 60.1 °F 81% 30.05 in 10.0 mi South 6.9 mph - N/A   Overcast
9:53 AM 66.9 °F - 60.1 °F 79% 30.06 in 10.0 mi South 4.6 mph - N/A   Overcast
10:53 AM 69.1 °F - 59.0 °F 70% 30.06 in 10.0 mi Calm Calm - N/A   Overcast
11:12 AM 70.0 °F - 59.0 °F 68% 30.06 in 10.0 mi Calm Calm - N/A   Overcast
11:36 AM 71.1 °F - 59.0 °F 66% 30.06 in 10.0 mi Variable 5.8 mph - N/A   Overcast
11:53 AM 73.0 °F - 59.0 °F 61% 30.06 in 10.0 mi Variable 3.5 mph - N/A   Mostly Cloudy
12:43 PM 73.0 °F - 59.0 °F 61% 30.05 in 10.0 mi Calm Calm - N/A   Overcast
12:53 PM 73.9 °F - 60.1 °F 62% 30.04 in 10.0 mi Variable 3.5 mph - N/A   Overcast
1:53 PM 75.0 °F - 59.0 °F 57% 30.04 in 10.0 mi South 5.8 mph - N/A   Scattered Clouds
2:53 PM 75.9 °F - 59.0 °F 56% 30.03 in 10.0 mi WSW 5.8 mph - N/A   Overcast
3:53 PM 78.1 °F - 59.0 °F 52% 30.02 in 10.0 mi North 5.8 mph - N/A   Overcast
4:53 PM 80.1 °F 80.7 °F 59.0 °F 48% 30.02 in 10.0 mi North 4.6 mph - N/A   Scattered Clouds
5:53 PM 79.0 °F - 57.9 °F 48% 30.01 in 10.0 mi North 3.5 mph - N/A   Partly Cloudy
6:53 PM 78.1 °F - 57.9 °F 50% 30.01 in 10.0 mi NW 4.6 mph - N/A   Clear
7:53 PM 73.9 °F - 59.0 °F 59% 30.01 in 10.0 mi Calm Calm - N/A   Clear
8:53 PM 72.0 °F - 60.1 °F 66% 30.02 in 10.0 mi North 6.9 mph - N/A   Clear
10:53 PM 68.0 °F - 61.0 °F 78% 30.04 in 10.0 mi North 6.9 mph - N/A   Clear
11:53 PM 66.0 °F - 60.1 °F 81% 30.05 in 10.0 mi North - - N/A   Mostly Cloudy